#timestamp,LO_Frequency,Hit,StdDev 
1700528415.8,286046999.4,N
1700528435.7,286047000.9,N
1700528455.5,286047000.3,N
1700528475.3,286047004.1,N
1700528495.2,286047002.7,N
1700528515.9,286046999.6,N
1700528535.7,286047000.1,N
1700528555.6,286046999.8,N
1700528575.4,286047001.6,N
1700528595.3,286047002.5,N
1700528615.1,286047002.3,N
1700528616.0,286047002.3,N
1700528635.8,286046998.5,N
1700528655.7,286046999.8,N
1700528675.5,286047001.7,N
1700528695.3,286047000.9,N
1700528715.2,286047001.2,N
1700528735.0,286047001.8,N
1700528735.9,286047001.8,N
1700528755.8,286047003.6,N
1700528775.6,286047001.5,N
1700528795.4,286047001.3,N
1700528815.3,286047005.9,Y
1700528835.1,286047001.7,P
1700528855.8,286047003.4,P
1700528875.7,286047004.3,P
1700528895.5,286046998.5,N
1700528945.4,286047004.3,E
1700528955.3,286047000.0,N
1700528975.1,286047001.1,P
1700528995.9,286046995.0,P
1700529015.7,286046994.6,N
1700529035.6,286046993.6,N
1700529055.4,286046997.3,N
1700529075.2,286046999.5,N
1700529095.1,286046997.7,N
1700529096.0,286046997.7,N
1700529115.8,286046996.7,N
1700529135.6,286046995.1,N
1700529155.5,286046998.7,N
1700529175.3,286046999.0,N
1700529195.2,286046996.5,N
1700529215.9,286046997.4,N
1700529235.7,286046995.9,N
1700529255.6,286047000.9,N
1700529275.4,286046999.7,N
1700529295.2,286047001.5,N
1700529315.1,286047005.6,N
1700529316.0,286047005.6,N
1700529335.8,286047006.2,N
1700529355.7,286047005.8,N
1700529375.5,286047005.4,N
1700529395.3,286047007.5,N
1700529415.2,286047007.9,N
1700529435.9,286047006.4,N
1700529455.7,286047001.7,N
1700529475.6,286047003.6,N
1700529495.4,286047001.5,N
1700529515.3,286047004.3,N
1700529535.1,286047004.4,N
1700529536.0,286047004.4,N
1700529555.8,286047004.6,N
1700529575.7,286047004.6,N
1700529595.5,286047005.7,N
1700529615.3,286047003.4,N
1700529635.2,286047003.6,N
1700529655.0,286047003.4,N
1700529655.9,286047003.4,N
1700529675.8,286047004.1,N
1700529695.6,286047002.3,N
1700529715.4,286047005.6,N
1700529735.3,286047002.3,N
1700529755.1,286047001.6,N
1700529775.8,286047003.4,N
1700529795.7,286047006.8,Y
1700529815.5,286046998.5,P
1700529835.4,286046997.7,N
1700529855.2,286046997.6,N
1700529875.0,286046996.6,N
1700529875.9,286046996.6,N
1700529895.8,286046996.5,N
1700529915.6,286047000.8,N
1700529935.5,286046998.9,N
1700529955.3,286046999.5,N
1700529975.1,286046997.7,N
1700529995.9,286046996.7,N
1700530015.7,286046999.2,N
1700530035.5,286046996.7,N
1700530055.4,286046996.6,N
1700530075.2,286046994.9,N
1700530095.1,286046997.3,N
1700530096.0,286046997.3,N
1700530115.8,286046998.7,N
1700530135.6,286046999.0,N
1700530155.5,286046997.6,N
1700530175.3,286046996.1,N
1700530195.2,286046997.0,N
1700530215.9,286046997.7,N
1700530235.7,286046995.5,N
1700530255.6,286046993.7,Y
1700530275.4,286046999.0,P
1700530295.2,286046996.7,P
1700530315.1,286046998.1,N
1700530316.0,286046998.1,N
1700530335.8,286046998.6,N
1700530355.7,286046998.5,N
1700530375.5,286047004.0,Y
1700530395.3,286047004.1,P
1700530415.2,286047005.4,N
1700530435.0,286047003.1,N
1700530435.9,286047003.1,N
1700530455.8,286047003.8,N
1700530475.6,286047006.7,N
1700530495.4,286047005.3,N
1700530515.3,286047006.3,N
1700530535.1,286047009.0,Y
1700530555.8,286047005.9,P
1700530575.7,286047003.6,P
1700530595.5,286047003.3,P
1700530615.4,286047004.4,Y
1700530635.2,286046999.0,P
1700530655.0,286047000.2,N
1700530655.9,286047000.2,N
1700530675.8,286047003.8,N
1700530695.6,286047002.0,N
1700530715.5,286047002.3,N
1700530735.3,286047005.0,N
1700530755.1,286047006.8,Y
1700530775.9,286047005.2,P
1700530795.7,286047009.1,P
1700530815.5,286047007.9,N
1700530835.4,286047011.5,Y
1700530855.2,286047003.1,P
1700530875.1,286047003.8,N
1700530876.0,286047003.8,N
1700530895.8,286047003.8,Y
1700530915.6,286046996.5,P
1700530935.5,286046999.0,N
1700530955.3,286046997.6,N
1700530975.2,286046995.5,N
1700530995.9,286046997.7,N
1700531015.7,286046996.8,N
1700531035.6,286046996.5,N
1700531055.4,286046997.8,N
1700531075.2,286047001.1,N
1700531095.1,286047004.1,N
1700531096.0,286047004.1,N
1700531115.8,286047004.2,N
1700531135.7,286047002.6,N
1700531155.5,286046998.4,N
1700531175.4,286047002.8,N
1700531195.2,286047000.7,N
1700531215.0,286046999.3,N
1700531215.9,286046999.3,N
1700531235.8,286046999.6,N
1700531255.6,286046999.6,N
1700531275.4,286046996.7,N
1700531295.3,286046998.0,N
1700531315.1,286046996.5,N
1700531335.9,286046996.8,N
1700531355.7,286046995.4,N
1700531375.5,286046995.3,N
1700531395.4,286046998.9,N
1700531415.2,286046999.5,N
1700531435.1,286046996.8,N
1700531436.0,286046996.8,N
1700531455.8,286046995.8,N
1700531475.6,286046993.3,N
1700531495.5,286046992.2,N
1700531515.3,286046991.4,N
1700531535.2,286046990.4,N
1700531555.9,286046994.1,N
1700531575.8,286046994.2,N
1700531595.6,286046994.4,N
1700531615.5,286046994.1,N
1700531635.3,286046995.1,N
1700531655.1,286046996.5,N
1700531675.9,286046997.2,N
1700531695.7,286046995.3,N
1700531715.5,286046994.2,N
1700531735.4,286046993.1,N
1700531755.2,286046993.1,N
1700531775.1,286046996.4,N
1700531776.0,286046996.4,N
1700531795.8,286046997.2,N
1700531815.6,286046994.0,N
1700531835.5,286046990.5,Y
1700531855.3,286046993.3,P
1700531875.2,286046998.4,N
1700531895.9,286046998.9,N
1700531915.7,286046999.5,N
1700531935.6,286046997.3,N
1700531955.4,286046998.6,N
1700531975.2,286046999.0,N
1700531995.1,286046996.4,N
1700531996.0,286046996.4,N
